Time,TemperatureF,DewpointF,PressureIn,WindDirection,WindDirectionDegrees,WindSpeedMPH,WindSpeedGustMPH,Humidity,HourlyPrecipIn,Conditions,Clouds,dailyrainin,SoftwareType,DateUTC
2013-01-16 00:04:00,30.2,28.9,30.12,NE,38,0.0,1.0,95,0.00,,,0.00,Wunderground v.1.15,2013-01-16 06:04:00,
2013-01-16 00:10:00,30.1,28.8,30.14,NE,38,1.0,1.0,95,0.00,,,0.00,Wunderground v.1.15,2013-01-16 06:10:00,
2013-01-16 00:15:00,30.2,28.9,30.13,NE,38,0.0,0.0,95,0.00,,,0.00,Wunderground v.1.15,2013-01-16 06:15:00,
2013-01-16 00:21:00,30.1,28.8,30.13,NE,38,0.0,0.0,95,0.00,,,0.00,Wunderground v.1.15,2013-01-16 06:21:00,
2013-01-16 00:27:00,30.0,28.7,30.12,NE,38,0.0,0.0,95,0.00,,,0.00,Wunderground v.1.15,2013-01-16 06:27:00,
2013-01-16 00:32:00,29.9,28.6,30.11,NE,38,0.0,0.0,95,0.00,,,0.00,Wunderground v.1.15,2013-01-16 06:32:00,
2013-01-16 00:37:00,29.9,28.6,30.12,NE,38,1.0,1.0,95,0.00,,,0.00,Wunderground v.1.15,2013-01-16 06:37:00,
2013-01-16 00:43:00,29.9,28.6,30.12,NE,38,1.0,3.0,95,0.00,,,0.00,Wunderground v.1.15,2013-01-16 06:43:00,
2013-01-16 00:55:00,29.8,28.5,30.12,NE,38,1.0,1.0,95,0.00,,,0.00,Wunderground v.1.15,2013-01-16 06:55:00,
2013-01-16 01:03:00,29.9,28.6,30.11,NE,38,0.0,0.0,95,0.00,,,0.00,Wunderground v.1.15,2013-01-16 07:03:00,
2013-01-16 01:09:00,29.9,28.6,30.11,NE,38,0.0,1.0,95,0.00,,,0.00,Wunderground v.1.15,2013-01-16 07:09:00,
2013-01-16 01:14:00,29.9,28.6,30.12,NE,38,0.0,0.0,95,0.00,,,0.00,Wunderground v.1.15,2013-01-16 07:14:00,
2013-01-16 01:19:00,29.9,28.6,30.13,NE,38,1.0,1.0,95,0.00,,,0.00,Wunderground v.1.15,2013-01-16 07:19:00,
2013-01-16 01:24:00,29.9,28.6,30.13,NE,38,0.0,0.0,95,0.00,,,0.00,Wunderground v.1.15,2013-01-16 07:24:00,
2013-01-16 01:29:00,29.9,28.6,30.12,NE,38,2.0,2.0,95,0.00,,,0.00,Wunderground v.1.15,2013-01-16 07:29:00,
2013-01-16 01:35:00,29.9,28.6,30.13,NE,38,0.0,1.0,95,0.00,,,0.00,Wunderground v.1.15,2013-01-16 07:35:00,
2013-01-16 01:41:00,29.8,28.5,30.12,NE,38,1.0,1.0,95,0.00,,,0.00,Wunderground v.1.15,2013-01-16 07:41:00,
2013-01-16 01:46:00,29.8,28.5,30.10,NE,38,0.0,1.0,95,0.00,,,0.00,Wunderground v.1.15,2013-01-16 07:46:00,
2013-01-16 01:52:00,29.7,28.4,30.11,NE,38,0.0,1.0,95,0.00,,,0.00,Wunderground v.1.15,2013-01-16 07:52:00,
2013-01-16 01:58:00,29.6,28.3,30.10,NE,38,1.0,2.0,95,0.00,,,0.00,Wunderground v.1.15,2013-01-16 07:58:00,
2013-01-16 02:03:00,29.6,28.3,30.12,NE,38,1.0,1.0,95,0.00,,,0.00,Wunderground v.1.15,2013-01-16 08:03:00,
2013-01-16 02:08:00,29.6,28.3,30.11,NE,38,0.0,2.0,95,0.00,,,0.00,Wunderground v.1.15,2013-01-16 08:08:00,
2013-01-16 02:13:00,29.6,28.3,30.11,NE,38,0.0,1.0,95,0.00,,,0.00,Wunderground v.1.15,2013-01-16 08:13:00,
2013-01-16 02:18:00,29.6,28.3,30.12,NE,38,0.0,1.0,95,0.00,,,0.00,Wunderground v.1.15,2013-01-16 08:18:00,
2013-01-16 02:23:00,29.6,28.3,30.11,NE,38,0.0,2.0,95,0.00,,,0.00,Wunderground v.1.15,2013-01-16 08:23:00,
2013-01-16 02:29:00,29.6,28.3,30.10,NE,38,1.0,2.0,95,0.00,,,0.00,Wunderground v.1.15,2013-01-16 08:29:00,
2013-01-16 02:34:00,29.7,28.4,30.12,NE,38,0.0,0.0,95,0.00,,,0.00,Wunderground v.1.15,2013-01-16 08:34:00,
2013-01-16 02:39:00,29.7,28.4,30.12,NE,38,0.0,0.0,95,0.00,,,0.00,Wunderground v.1.15,2013-01-16 08:39:00,
2013-01-16 02:44:00,29.7,28.4,30.11,NE,38,0.0,0.0,95,0.00,,,0.00,Wunderground v.1.15,2013-01-16 08:44:00,
2013-01-16 02:49:00,29.7,28.4,30.12,NE,38,0.0,0.0,95,0.00,,,0.00,Wunderground v.1.15,2013-01-16 08:49:00,
2013-01-16 02:54:00,29.7,28.4,30.12,NE,38,0.0,0.0,95,0.00,,,0.00,Wunderground v.1.15,2013-01-16 08:54:00,
2013-01-16 02:59:00,29.7,28.4,30.10,NE,38,0.0,1.0,95,0.00,,,0.00,Wunderground v.1.15,2013-01-16 08:59:00,
2013-01-16 03:04:00,29.8,28.5,30.09,NE,38,0.0,0.0,95,0.00,,,0.00,Wunderground v.1.15,2013-01-16 09:04:00,
2013-01-16 03:09:00,29.8,28.5,30.09,NE,38,0.0,1.0,95,0.00,,,0.00,Wunderground v.1.15,2013-01-16 09:09:00,
2013-01-16 03:14:00,29.7,28.4,30.08,NE,38,0.0,0.0,95,0.00,,,0.00,Wunderground v.1.15,2013-01-16 09:14:00,
2013-01-16 03:19:00,29.7,28.4,30.08,NE,38,0.0,1.0,95,0.00,,,0.00,Wunderground v.1.15,2013-01-16 09:19:00,
2013-01-16 03:25:00,29.7,28.4,30.08,NE,38,0.0,2.0,95,0.00,,,0.00,Wunderground v.1.15,2013-01-16 09:25:00,
2013-01-16 03:30:00,29.7,28.4,30.08,NE,38,0.0,2.0,95,0.00,,,0.00,Wunderground v.1.15,2013-01-16 09:30:00,
2013-01-16 03:35:00,29.7,28.4,30.07,NE,38,0.0,1.0,95,0.00,,,0.00,Wunderground v.1.15,2013-01-16 09:35:00,
2013-01-16 03:40:00,29.8,28.8,30.07,NE,38,0.0,1.0,96,0.00,,,0.00,Wunderground v.1.15,2013-01-16 09:40:00,
2013-01-16 03:45:00,29.8,28.8,30.07,NE,38,0.0,2.0,96,0.00,,,0.00,Wunderground v.1.15,2013-01-16 09:45:00,
2013-01-16 03:50:00,29.8,28.5,30.08,NE,38,1.0,2.0,95,0.00,,,0.00,Wunderground v.1.15,2013-01-16 09:50:00,
2013-01-16 03:57:00,29.7,28.4,30.08,NE,38,0.0,2.0,95,0.00,,,0.00,Wunderground v.1.15,2013-01-16 09:57:00,
2013-01-16 04:02:00,29.7,28.4,30.08,NE,38,1.0,1.0,95,0.00,,,0.00,Wunderground v.1.15,2013-01-16 10:02:00,
2013-01-16 04:07:00,29.7,28.4,30.09,NE,38,0.0,1.0,95,0.00,,,0.00,Wunderground v.1.15,2013-01-16 10:07:00,
2013-01-16 04:12:00,29.7,28.4,30.09,NE,38,0.0,0.0,95,0.00,,,0.00,Wunderground v.1.15,2013-01-16 10:12:00,
2013-01-16 04:17:00,29.7,28.7,30.10,NE,38,0.0,1.0,96,0.00,,,0.00,Wunderground v.1.15,2013-01-16 10:17:00,
2013-01-16 04:22:00,29.8,28.8,30.12,NE,38,0.0,0.0,96,0.00,,,0.00,Wunderground v.1.15,2013-01-16 10:22:00,
2013-01-16 04:27:00,29.8,28.8,30.12,NE,38,0.0,1.0,96,0.00,,,0.00,Wunderground v.1.15,2013-01-16 10:27:00,
2013-01-16 04:32:00,29.9,28.9,30.10,NE,38,0.0,0.0,96,0.00,,,0.00,Wunderground v.1.15,2013-01-16 10:32:00,
2013-01-16 04:37:00,29.9,28.9,30.10,NE,38,0.0,1.0,96,0.00,,,0.00,Wunderground v.1.15,2013-01-16 10:37:00,
2013-01-16 04:42:00,29.9,28.9,30.11,NE,38,0.0,0.0,96,0.00,,,0.00,Wunderground v.1.15,2013-01-16 10:42:00,
2013-01-16 04:48:00,29.9,28.9,30.12,NE,38,0.0,1.0,96,0.00,,,0.00,Wunderground v.1.15,2013-01-16 10:48:00,
2013-01-16 04:53:00,29.9,28.9,30.14,NE,38,0.0,0.0,96,0.00,,,0.00,Wunderground v.1.15,2013-01-16 10:53:00,
2013-01-16 04:58:00,30.0,29.0,30.14,NE,38,0.0,0.0,96,0.00,,,0.00,Wunderground v.1.15,2013-01-16 10:58:00,
2013-01-16 05:03:00,30.1,29.1,30.14,NE,38,2.0,2.0,96,0.00,,,0.00,Wunderground v.1.15,2013-01-16 11:03:00,
2013-01-16 05:08:00,30.1,29.1,30.12,NE,38,1.0,2.0,96,0.00,,,0.00,Wunderground v.1.15,2013-01-16 11:08:00,
2013-01-16 05:13:00,30.0,29.0,30.11,NE,38,1.0,3.0,96,0.00,,,0.00,Wunderground v.1.15,2013-01-16 11:13:00,
2013-01-16 05:18:00,30.0,28.7,30.12,NE,38,1.0,3.0,95,0.00,,,0.00,Wunderground v.1.15,2013-01-16 11:18:00,
2013-01-16 05:23:00,29.9,28.6,30.12,NE,38,0.0,2.0,95,0.00,,,0.00,Wunderground v.1.15,2013-01-16 11:23:00,
2013-01-16 05:28:00,30.0,28.7,30.12,NE,38,0.0,2.0,95,0.00,,,0.00,Wunderground v.1.15,2013-01-16 11:28:00,
2013-01-16 05:33:00,29.9,28.6,30.11,NE,38,0.0,2.0,95,0.00,,,0.00,Wunderground v.1.15,2013-01-16 11:33:00,
2013-01-16 05:38:00,29.9,28.6,30.11,NE,38,1.0,2.0,95,0.00,,,0.00,Wunderground v.1.15,2013-01-16 11:38:00,
2013-01-16 05:43:00,29.8,28.5,30.11,NE,38,0.0,2.0,95,0.00,,,0.00,Wunderground v.1.15,2013-01-16 11:43:00,
2013-01-16 05:48:00,29.8,28.5,30.11,NE,38,1.0,2.0,95,0.00,,,0.00,Wunderground v.1.15,2013-01-16 11:48:00,
2013-01-16 05:53:00,29.7,28.4,30.12,NE,38,1.0,2.0,95,0.00,,,0.00,Wunderground v.1.15,2013-01-16 11:53:00,
2013-01-16 05:58:00,29.6,28.1,30.13,NE,38,0.0,2.0,94,0.00,,,0.00,Wunderground v.1.15,2013-01-16 11:58:00,
2013-01-16 06:03:00,29.6,28.1,30.14,NE,38,0.0,1.0,94,0.00,,,0.00,Wunderground v.1.15,2013-01-16 12:03:00,
2013-01-16 06:08:00,29.7,28.2,30.14,NE,38,0.0,2.0,94,0.00,,,0.00,Wunderground v.1.15,2013-01-16 12:08:00,
2013-01-16 06:14:00,29.7,28.2,30.15,NE,38,0.0,0.0,94,0.00,,,0.00,Wunderground v.1.15,2013-01-16 12:14:00,
2013-01-16 06:19:00,29.7,28.2,30.14,NE,38,1.0,1.0,94,0.00,,,0.00,Wunderground v.1.15,2013-01-16 12:19:00,
2013-01-16 06:24:00,29.7,28.2,30.15,NE,38,1.0,1.0,94,0.00,,,0.00,Wunderground v.1.15,2013-01-16 12:24:00,
2013-01-16 06:29:00,29.7,28.2,30.15,NE,38,0.0,1.0,94,0.00,,,0.00,Wunderground v.1.15,2013-01-16 12:29:00,
2013-01-16 06:34:00,29.7,28.2,30.16,NE,38,0.0,0.0,94,0.00,,,0.00,Wunderground v.1.15,2013-01-16 12:34:00,
2013-01-16 06:39:00,29.7,28.2,30.16,NE,38,0.0,0.0,94,0.00,,,0.00,Wunderground v.1.15,2013-01-16 12:39:00,
2013-01-16 06:44:00,29.7,28.2,30.17,NE,38,0.0,1.0,94,0.00,,,0.00,Wunderground v.1.15,2013-01-16 12:44:00,
2013-01-16 06:49:00,29.7,27.9,30.16,NE,38,0.0,1.0,93,0.00,,,0.00,Wunderground v.1.15,2013-01-16 12:49:00,
2013-01-16 06:54:00,29.7,27.9,30.16,NE,38,0.0,0.0,93,0.00,,,0.00,Wunderground v.1.15,2013-01-16 12:54:00,
2013-01-16 06:59:00,29.7,27.9,30.16,NE,38,0.0,1.0,93,0.00,,,0.00,Wunderground v.1.15,2013-01-16 12:59:00,
2013-01-16 07:04:00,29.7,28.2,30.17,NE,38,0.0,0.0,94,0.00,,,0.00,Wunderground v.1.15,2013-01-16 13:04:00,
2013-01-16 07:09:00,29.7,28.2,30.17,NE,38,0.0,1.0,94,0.00,,,0.00,Wunderground v.1.15,2013-01-16 13:09:00,
2013-01-16 07:14:00,29.7,27.9,30.17,NE,38,0.0,0.0,93,0.00,,,0.00,Wunderground v.1.15,2013-01-16 13:14:00,
2013-01-16 07:19:00,29.7,27.9,30.16,NE,38,0.0,1.0,93,0.00,,,0.00,Wunderground v.1.15,2013-01-16 13:19:00,
2013-01-16 07:24:00,29.7,27.9,30.16,NE,38,0.0,0.0,93,0.00,,,0.00,Wunderground v.1.15,2013-01-16 13:24:00,
2013-01-16 07:30:00,29.7,28.2,30.16,NE,38,0.0,0.0,94,0.00,,,0.00,Wunderground v.1.15,2013-01-16 13:30:00,
2013-01-16 07:35:00,29.7,28.2,30.15,NE,38,0.0,0.0,94,0.00,,,0.00,Wunderground v.1.15,2013-01-16 13:35:00,
2013-01-16 07:40:00,29.7,28.2,30.13,NE,38,0.0,0.0,94,0.00,,,0.00,Wunderground v.1.15,2013-01-16 13:40:00,
2013-01-16 07:45:00,29.7,28.2,30.12,NE,38,0.0,0.0,94,0.00,,,0.00,Wunderground v.1.15,2013-01-16 13:45:00,
2013-01-16 07:50:00,29.7,27.9,30.12,NE,38,0.0,0.0,93,0.00,,,0.00,Wunderground v.1.15,2013-01-16 13:50:00,
2013-01-16 07:56:00,29.7,27.9,30.13,NE,38,1.0,1.0,93,0.00,,,0.00,Wunderground v.1.15,2013-01-16 13:56:00,
2013-01-16 08:01:00,29.8,28.3,30.14,NE,38,2.0,2.0,94,0.00,,,0.00,Wunderground v.1.15,2013-01-16 14:01:00,
2013-01-16 08:06:00,29.8,28.0,30.16,NE,38,2.0,2.0,93,0.00,,,0.00,Wunderground v.1.15,2013-01-16 14:06:00,
2013-01-16 08:11:00,29.9,28.1,30.16,NE,38,0.0,1.0,93,0.00,,,0.00,Wunderground v.1.15,2013-01-16 14:11:00,
2013-01-16 08:16:00,29.9,28.1,30.17,NE,38,0.0,2.0,93,0.00,,,0.00,Wunderground v.1.15,2013-01-16 14:16:00,
2013-01-16 08:21:00,29.9,28.1,30.17,NE,38,0.0,1.0,93,0.00,,,0.00,Wunderground v.1.15,2013-01-16 14:21:00,
2013-01-16 08:26:00,30.0,28.2,30.17,NE,38,0.0,1.0,93,0.00,,,0.00,Wunderground v.1.15,2013-01-16 14:26:00,
2013-01-16 08:31:00,30.1,28.3,30.19,NE,38,0.0,1.0,93,0.00,,,0.00,Wunderground v.1.15,2013-01-16 14:31:00,
2013-01-16 08:36:00,30.2,28.4,30.19,NE,38,0.0,1.0,93,0.00,,,0.00,Wunderground v.1.15,2013-01-16 14:36:00,
2013-01-16 08:41:00,30.2,28.4,30.19,NE,38,0.0,0.0,93,0.00,,,0.00,Wunderground v.1.15,2013-01-16 14:41:00,
2013-01-16 08:46:00,30.2,28.4,30.20,NE,38,0.0,1.0,93,0.00,,,0.00,Wunderground v.1.15,2013-01-16 14:46:00,
2013-01-16 08:51:00,30.3,28.5,30.19,NE,38,0.0,0.0,93,0.00,,,0.00,Wunderground v.1.15,2013-01-16 14:51:00,
2013-01-16 08:56:00,30.3,28.5,30.18,NE,38,0.0,0.0,93,0.00,,,0.00,Wunderground v.1.15,2013-01-16 14:56:00,
2013-01-16 09:01:00,30.4,28.6,30.18,NE,38,0.0,1.0,93,0.00,,,0.00,Wunderground v.1.15,2013-01-16 15:01:00,
2013-01-16 09:06:00,30.5,28.7,30.17,NE,38,0.0,1.0,93,0.00,,,0.00,Wunderground v.1.15,2013-01-16 15:06:00,
2013-01-16 09:11:00,30.6,28.8,30.17,NE,38,0.0,0.0,93,0.00,,,0.00,Wunderground v.1.15,2013-01-16 15:11:00,
2013-01-16 09:16:00,30.6,28.8,30.18,NE,38,0.0,2.0,93,0.00,,,0.00,Wunderground v.1.15,2013-01-16 15:16:00,
2013-01-16 09:21:00,30.6,28.6,30.17,NE,38,0.0,0.0,92,0.00,,,0.00,Wunderground v.1.15,2013-01-16 15:21:00,
2013-01-16 09:26:00,30.7,28.9,30.17,NE,38,0.0,0.0,93,0.00,,,0.00,Wunderground v.1.15,2013-01-16 15:26:00,
2013-01-16 09:31:00,30.9,29.1,30.16,NE,38,0.0,1.0,93,0.00,,,0.00,Wunderground v.1.15,2013-01-16 15:31:00,
2013-01-16 09:36:00,31.0,29.2,30.16,NE,38,0.0,1.0,93,0.00,,,0.00,Wunderground v.1.15,2013-01-16 15:36:00,
2013-01-16 09:41:00,31.0,29.2,30.17,NE,38,0.0,0.0,93,0.00,,,0.00,Wunderground v.1.15,2013-01-16 15:41:00,
2013-01-16 09:46:00,31.1,29.0,30.18,NE,38,0.0,0.0,92,0.00,,,0.00,Wunderground v.1.15,2013-01-16 15:46:00,
2013-01-16 09:52:00,31.1,29.0,30.18,NE,38,0.0,2.0,92,0.00,,,0.00,Wunderground v.1.15,2013-01-16 15:52:00,
2013-01-16 09:57:00,31.1,29.0,30.19,NE,38,0.0,2.0,92,0.00,,,0.00,Wunderground v.1.15,2013-01-16 15:57:00,
2013-01-16 10:02:00,31.1,29.0,30.19,NE,38,0.0,1.0,92,0.00,,,0.00,Wunderground v.1.15,2013-01-16 16:02:00,
2013-01-16 10:07:00,31.1,29.0,30.19,NE,38,0.0,1.0,92,0.00,,,0.00,Wunderground v.1.15,2013-01-16 16:07:00,
2013-01-16 10:12:00,31.2,29.4,30.17,NE,38,0.0,0.0,93,0.00,,,0.00,Wunderground v.1.15,2013-01-16 16:12:00,
2013-01-16 10:17:00,31.2,29.4,30.16,NE,38,0.0,0.0,93,0.00,,,0.00,Wunderground v.1.15,2013-01-16 16:17:00,
2013-01-16 10:22:00,31.3,29.5,30.16,NE,38,0.0,0.0,93,0.00,,,0.00,Wunderground v.1.15,2013-01-16 16:22:00,
2013-01-16 10:27:00,31.3,29.5,30.16,NE,38,0.0,1.0,93,0.00,,,0.00,Wunderground v.1.15,2013-01-16 16:27:00,
2013-01-16 10:32:00,31.3,29.2,30.15,NE,38,0.0,1.0,92,0.00,,,0.00,Wunderground v.1.15,2013-01-16 16:32:00,
2013-01-16 10:37:00,31.3,29.5,30.16,NE,38,0.0,1.0,93,0.00,,,0.00,Wunderground v.1.15,2013-01-16 16:37:00,
2013-01-16 10:42:00,31.4,29.6,30.14,NE,38,0.0,0.0,93,0.00,,,0.00,Wunderground v.1.15,2013-01-16 16:42:00,
2013-01-16 10:47:00,31.4,29.6,30.14,NE,38,0.0,1.0,93,0.00,,,0.00,Wunderground v.1.15,2013-01-16 16:47:00,
2013-01-16 10:53:00,31.5,29.7,30.14,NE,38,0.0,1.0,93,0.00,,,0.00,Wunderground v.1.15,2013-01-16 16:53:00,
2013-01-16 10:58:00,31.6,29.8,30.13,NE,38,0.0,1.0,93,0.00,,,0.00,Wunderground v.1.15,2013-01-16 16:58:00,
2013-01-16 11:03:00,31.6,29.5,30.14,NE,38,0.0,1.0,92,0.00,,,0.00,Wunderground v.1.15,2013-01-16 17:03:00,
2013-01-16 11:09:00,31.5,29.4,30.16,NE,38,0.0,1.0,92,0.00,,,0.00,Wunderground v.1.15,2013-01-16 17:09:00,
2013-01-16 11:14:00,31.5,29.4,30.16,NE,38,0.0,0.0,92,0.00,,,0.00,Wunderground v.1.15,2013-01-16 17:14:00,
2013-01-16 11:19:00,31.6,29.8,30.14,NE,38,0.0,0.0,93,0.00,,,0.00,Wunderground v.1.15,2013-01-16 17:19:00,
2013-01-16 11:24:00,31.7,29.9,30.15,NE,38,0.0,0.0,93,0.00,,,0.00,Wunderground v.1.15,2013-01-16 17:24:00,
2013-01-16 11:29:00,31.8,30.0,30.14,NE,38,0.0,0.0,93,0.00,,,0.00,Wunderground v.1.15,2013-01-16 17:29:00,
2013-01-16 11:34:00,31.9,30.1,30.13,NE,38,0.0,0.0,93,0.00,,,0.00,Wunderground v.1.15,2013-01-16 17:34:00,
2013-01-16 11:39:00,31.9,30.1,30.14,NE,38,0.0,0.0,93,0.00,,,0.00,Wunderground v.1.15,2013-01-16 17:39:00,
2013-01-16 11:44:00,31.9,29.8,30.13,NE,38,0.0,0.0,92,0.00,,,0.00,Wunderground v.1.15,2013-01-16 17:44:00,
2013-01-16 11:49:00,31.9,29.8,30.14,NE,38,0.0,1.0,92,0.00,,,0.00,Wunderground v.1.15,2013-01-16 17:49:00,
2013-01-16 11:54:00,31.9,29.8,30.15,NE,38,0.0,0.0,92,0.00,,,0.00,Wunderground v.1.15,2013-01-16 17:54:00,
2013-01-16 11:59:00,32.0,29.9,30.15,NE,38,0.0,0.0,92,0.00,,,0.00,Wunderground v.1.15,2013-01-16 17:59:00,
2013-01-16 12:05:00,32.0,29.9,30.14,NE,38,0.0,0.0,92,0.00,,,0.00,Wunderground v.1.15,2013-01-16 18:05:00,
2013-01-16 12:10:00,32.0,30.2,30.14,NE,38,0.0,0.0,93,0.00,,,0.00,Wunderground v.1.15,2013-01-16 18:10:00,
2013-01-16 12:15:00,32.1,30.3,30.14,NE,38,0.0,0.0,93,0.00,,,0.00,Wunderground v.1.15,2013-01-16 18:15:00,
2013-01-16 12:20:00,32.2,30.1,30.14,NE,38,0.0,1.0,92,0.00,,,0.00,Wunderground v.1.15,2013-01-16 18:20:00,
2013-01-16 12:25:00,32.2,30.1,30.15,NE,38,0.0,0.0,92,0.00,,,0.00,Wunderground v.1.15,2013-01-16 18:25:00,
2013-01-16 12:30:00,32.3,30.2,30.15,NE,38,0.0,0.0,92,0.00,,,0.01,Wunderground v.1.15,2013-01-16 18:30:00,
2013-01-16 12:35:00,32.3,30.2,30.13,NE,38,0.0,0.0,92,0.16,,,0.03,Wunderground v.1.15,2013-01-16 18:35:00,
2013-01-16 12:40:00,32.4,30.6,30.14,NE,38,0.0,0.0,93,0.07,,,0.03,Wunderground v.1.15,2013-01-16 18:40:00,
2013-01-16 12:45:00,32.5,30.7,30.14,NE,38,0.0,1.0,93,0.06,,,0.04,Wunderground v.1.15,2013-01-16 18:45:00,
2013-01-16 12:50:00,32.6,30.8,30.13,NE,38,0.0,0.0,93,0.06,,,0.04,Wunderground v.1.15,2013-01-16 18:50:00,
2013-01-16 12:56:00,32.6,30.5,30.13,NNW,338,0.0,2.0,92,0.04,,,0.04,Wunderground v.1.15,2013-01-16 18:56:00,
2013-01-16 13:01:00,32.5,30.4,30.14,NNW,338,0.0,0.0,92,0.00,,,0.04,Wunderground v.1.15,2013-01-16 19:01:00,
2013-01-16 13:06:00,32.5,30.4,30.12,NNW,338,0.0,0.0,92,0.00,,,0.04,Wunderground v.1.15,2013-01-16 19:06:00,
2013-01-16 13:11:00,32.5,30.7,30.12,NNW,338,0.0,0.0,93,0.00,,,0.04,Wunderground v.1.15,2013-01-16 19:11:00,
2013-01-16 13:16:00,32.5,30.4,30.13,NNW,338,0.0,1.0,92,0.00,,,0.04,Wunderground v.1.15,2013-01-16 19:16:00,
2013-01-16 13:21:00,32.4,30.3,30.13,NNW,337,0.0,0.0,92,0.00,,,0.04,Wunderground v.1.15,2013-01-16 19:21:00,
2013-01-16 13:26:00,32.3,30.2,30.13,NNW,337,0.0,0.0,92,0.00,,,0.05,Wunderground v.1.15,2013-01-16 19:26:00,
2013-01-16 13:31:00,32.4,30.3,30.13,NNW,337,0.0,0.0,92,0.00,,,0.05,Wunderground v.1.15,2013-01-16 19:31:00,
2013-01-16 13:36:00,32.3,30.2,30.13,NNW,337,0.0,0.0,92,0.00,,,0.05,Wunderground v.1.15,2013-01-16 19:36:00,
2013-01-16 13:41:00,32.3,30.2,30.13,NNW,337,0.0,0.0,92,0.00,,,0.05,Wunderground v.1.15,2013-01-16 19:41:00,
2013-01-16 13:46:00,32.3,30.2,30.13,NNW,337,0.0,1.0,92,0.00,,,0.05,Wunderground v.1.15,2013-01-16 19:46:00,
2013-01-16 13:51:00,32.3,30.0,30.14,NNW,337,0.0,0.0,91,0.00,,,0.05,Wunderground v.1.15,2013-01-16 19:51:00,
2013-01-16 13:56:00,32.4,30.3,30.13,NNW,337,0.0,0.0,92,0.00,,,0.05,Wunderground v.1.15,2013-01-16 19:56:00,
2013-01-16 14:01:00,32.4,30.6,30.12,NNW,337,0.0,0.0,93,0.00,,,0.05,Wunderground v.1.15,2013-01-16 20:01:00,
2013-01-16 14:06:00,32.5,30.7,30.12,NNW,337,0.0,0.0,93,0.00,,,0.06,Wunderground v.1.15,2013-01-16 20:06:00,
2013-01-16 14:11:00,32.5,30.7,30.12,NNW,337,0.0,0.0,93,0.00,,,0.06,Wunderground v.1.15,2013-01-16 20:11:00,
2013-01-16 14:17:00,32.6,30.8,30.11,NNW,337,0.0,0.0,93,0.00,,,0.06,Wunderground v.1.15,2013-01-16 20:17:00,
2013-01-16 14:22:00,32.6,30.8,30.11,NNW,337,0.0,0.0,93,0.00,,,0.06,Wunderground v.1.15,2013-01-16 20:22:00,
2013-01-16 14:27:00,32.6,30.5,30.12,NNW,337,0.0,1.0,92,0.00,,,0.06,Wunderground v.1.15,2013-01-16 20:27:00,
2013-01-16 14:32:00,32.5,30.4,30.12,NNW,337,0.0,0.0,92,0.00,,,0.06,Wunderground v.1.15,2013-01-16 20:32:00,
2013-01-16 14:37:00,32.5,30.7,30.11,NNW,337,0.0,0.0,93,0.00,,,0.06,Wunderground v.1.15,2013-01-16 20:37:00,
2013-01-16 14:42:00,32.5,30.7,30.11,NNW,337,0.0,0.0,93,0.00,,,0.06,Wunderground v.1.15,2013-01-16 20:42:00,
2013-01-16 14:47:00,32.5,30.4,30.11,NNW,337,0.0,0.0,92,0.00,,,0.06,Wunderground v.1.15,2013-01-16 20:47:00,
2013-01-16 14:56:00,32.5,30.4,30.13,NNW,337,0.0,0.0,92,0.00,,,0.06,Wunderground v.1.15,2013-01-16 20:56:00,
2013-01-16 15:01:00,32.5,30.4,30.12,NNW,337,0.0,0.0,92,0.00,,,0.06,Wunderground v.1.15,2013-01-16 21:01:00,
2013-01-16 15:06:00,32.5,30.7,30.13,NNW,337,0.0,0.0,93,0.00,,,0.06,Wunderground v.1.15,2013-01-16 21:06:00,
2013-01-16 15:11:00,32.5,30.4,30.12,NNW,337,0.0,0.0,92,0.00,,,0.06,Wunderground v.1.15,2013-01-16 21:11:00,
2013-01-16 15:16:00,32.4,30.3,30.12,NNW,337,0.0,2.0,92,0.00,,,0.07,Wunderground v.1.15,2013-01-16 21:16:00,
2013-01-16 15:21:00,32.4,30.1,30.13,NNW,337,0.0,0.0,91,0.00,,,0.07,Wunderground v.1.15,2013-01-16 21:21:00,
2013-01-16 15:26:00,32.4,30.3,30.13,NNW,337,0.0,0.0,92,0.00,,,0.07,Wunderground v.1.15,2013-01-16 21:26:00,
2013-01-16 15:31:00,32.4,30.3,30.13,NNW,337,0.0,0.0,92,0.00,,,0.07,Wunderground v.1.15,2013-01-16 21:31:00,
2013-01-16 15:36:00,32.4,30.3,30.13,NNW,337,0.0,0.0,92,0.00,,,0.07,Wunderground v.1.15,2013-01-16 21:36:00,
2013-01-16 15:41:00,32.4,30.3,30.13,NNW,337,0.0,0.0,92,0.00,,,0.07,Wunderground v.1.15,2013-01-16 21:41:00,
2013-01-16 15:47:00,32.4,30.6,30.14,NNW,337,0.0,0.0,93,0.00,,,0.07,Wunderground v.1.15,2013-01-16 21:47:00,
2013-01-16 15:52:00,32.4,30.6,30.13,NNW,337,0.0,0.0,93,0.00,,,0.07,Wunderground v.1.15,2013-01-16 21:52:00,
2013-01-16 15:57:00,32.3,30.5,30.13,NNW,337,0.0,0.0,93,0.00,,,0.07,Wunderground v.1.15,2013-01-16 21:57:00,
2013-01-16 16:02:00,32.3,30.2,30.13,NNW,337,0.0,0.0,92,0.00,,,0.07,Wunderground v.1.15,2013-01-16 22:02:00,
2013-01-16 16:07:00,32.3,30.5,30.13,NNW,337,0.0,0.0,93,0.00,,,0.07,Wunderground v.1.15,2013-01-16 22:07:00,
2013-01-16 16:12:00,32.3,30.5,30.13,NNW,337,0.0,0.0,93,0.00,,,0.07,Wunderground v.1.15,2013-01-16 22:12:00,
2013-01-16 16:17:00,32.3,30.5,30.13,NNW,337,0.0,0.0,93,0.00,,,0.07,Wunderground v.1.15,2013-01-16 22:17:00,
2013-01-16 16:22:00,32.3,30.5,30.13,NNW,337,0.0,0.0,93,0.00,,,0.07,Wunderground v.1.15,2013-01-16 22:22:00,
2013-01-16 16:27:00,32.3,30.5,30.13,NNW,337,0.0,0.0,93,0.00,,,0.07,Wunderground v.1.15,2013-01-16 22:27:00,
2013-01-16 16:32:00,32.2,30.4,30.13,NNW,337,0.0,0.0,93,0.00,,,0.07,Wunderground v.1.15,2013-01-16 22:32:00,
2013-01-16 16:37:00,32.2,30.4,30.13,NNW,337,0.0,0.0,93,0.00,,,0.07,Wunderground v.1.15,2013-01-16 22:37:00,
2013-01-16 16:42:00,32.1,30.3,30.13,NNW,337,0.0,0.0,93,0.00,,,0.07,Wunderground v.1.15,2013-01-16 22:42:00,
2013-01-16 16:47:00,32.1,30.3,30.14,NNW,337,0.0,0.0,93,0.00,,,0.07,Wunderground v.1.15,2013-01-16 22:47:00,
2013-01-16 16:53:00,32.1,30.3,30.13,NNW,337,0.0,0.0,93,0.00,,,0.07,Wunderground v.1.15,2013-01-16 22:53:00,
2013-01-16 16:58:00,32.1,30.3,30.13,NNW,337,0.0,0.0,93,0.00,,,0.07,Wunderground v.1.15,2013-01-16 22:58:00,
2013-01-16 17:03:00,32.1,30.6,30.14,NNW,337,0.0,0.0,94,0.00,,,0.07,Wunderground v.1.15,2013-01-16 23:03:00,
2013-01-16 17:08:00,32.0,30.5,30.14,NNW,337,0.0,0.0,94,0.00,,,0.07,Wunderground v.1.15,2013-01-16 23:08:00,
2013-01-16 17:13:00,32.0,32.0,30.14,NNW,337,0.0,0.0,100,0.00,,,0.07,Wunderground v.1.15,2013-01-16 23:13:00,
2013-01-16 17:18:00,32.0,30.5,30.14,NNW,337,0.0,0.0,94,0.00,,,0.07,Wunderground v.1.15,2013-01-16 23:18:00,
2013-01-16 17:23:00,31.9,30.4,30.14,NNW,337,0.0,0.0,94,0.00,,,0.07,Wunderground v.1.15,2013-01-16 23:23:00,
2013-01-16 17:32:00,31.8,30.3,30.13,NNW,337,0.0,0.0,94,0.00,,,0.07,Wunderground v.1.15,2013-01-16 23:32:00,
2013-01-16 17:37:00,31.7,30.2,30.13,NNW,337,0.0,0.0,94,0.00,,,0.07,Wunderground v.1.15,2013-01-16 23:37:00,
2013-01-16 17:42:00,31.7,30.2,30.13,NNW,337,0.0,0.0,94,0.00,,,0.07,Wunderground v.1.15,2013-01-16 23:42:00,
2013-01-16 17:47:00,31.7,30.2,30.13,NNW,337,0.0,0.0,94,0.00,,,0.07,Wunderground v.1.15,2013-01-16 23:47:00,
2013-01-16 17:52:00,31.6,30.1,30.14,NNW,337,0.0,0.0,94,0.00,,,0.07,Wunderground v.1.15,2013-01-16 23:52:00,
2013-01-16 17:57:00,31.6,30.1,30.14,NNW,337,0.0,0.0,94,0.00,,,0.07,Wunderground v.1.15,2013-01-16 23:57:00,
2013-01-16 18:02:00,31.5,30.0,30.14,NNW,337,0.0,0.0,94,0.00,,,0.07,Wunderground v.1.15,2013-01-17 00:02:00,
2013-01-16 18:08:00,31.5,30.0,30.15,NNW,337,0.0,0.0,94,0.00,,,0.07,Wunderground v.1.15,2013-01-17 00:08:00,
2013-01-16 18:13:00,31.5,30.0,30.15,NNW,337,0.0,0.0,94,0.00,,,0.07,Wunderground v.1.15,2013-01-17 00:13:00,
2013-01-16 18:18:00,31.5,30.0,30.15,NNW,337,0.0,0.0,94,0.00,,,0.07,Wunderground v.1.15,2013-01-17 00:18:00,
2013-01-16 18:23:00,31.4,29.9,30.15,NNW,337,0.0,0.0,94,0.00,,,0.07,Wunderground v.1.15,2013-01-17 00:23:00,
2013-01-16 18:28:00,31.4,29.9,30.14,NNW,337,0.0,0.0,94,0.00,,,0.07,Wunderground v.1.15,2013-01-17 00:28:00,
2013-01-16 18:33:00,31.4,29.9,30.14,NNW,337,0.0,0.0,94,0.00,,,0.07,Wunderground v.1.15,2013-01-17 00:33:00,
2013-01-16 18:39:00,31.4,30.1,30.15,NNW,337,0.0,0.0,95,0.00,,,0.07,Wunderground v.1.15,2013-01-17 00:39:00,
2013-01-16 18:44:00,31.4,30.1,30.14,NNW,337,0.0,0.0,95,0.00,,,0.07,Wunderground v.1.15,2013-01-17 00:44:00,
2013-01-16 18:49:00,31.3,30.0,30.15,NNW,337,0.0,0.0,95,0.00,,,0.07,Wunderground v.1.15,2013-01-17 00:49:00,
2013-01-16 18:54:00,31.3,29.8,30.15,NNW,337,0.0,0.0,94,0.00,,,0.07,Wunderground v.1.15,2013-01-17 00:54:00,
2013-01-16 18:59:00,31.3,30.0,30.15,NNW,337,0.0,0.0,95,0.00,,,0.07,Wunderground v.1.15,2013-01-17 00:59:00,
2013-01-16 19:05:00,31.2,29.9,30.15,NNW,337,0.0,0.0,95,0.00,,,0.07,Wunderground v.1.15,2013-01-17 01:05:00,
2013-01-16 19:10:00,31.2,29.9,30.15,NNW,337,0.0,0.0,95,0.00,,,0.07,Wunderground v.1.15,2013-01-17 01:10:00,
2013-01-16 19:15:00,31.2,29.9,30.15,NNW,337,0.0,0.0,95,0.00,,,0.07,Wunderground v.1.15,2013-01-17 01:15:00,
2013-01-16 19:20:00,31.2,29.9,30.15,NNW,337,0.0,0.0,95,0.00,,,0.07,Wunderground v.1.15,2013-01-17 01:20:00,
2013-01-16 19:25:00,31.2,29.9,30.16,NNW,337,0.0,0.0,95,0.00,,,0.07,Wunderground v.1.15,2013-01-17 01:25:00,
2013-01-16 19:31:00,31.2,29.9,30.15,NNW,337,0.0,0.0,95,0.00,,,0.07,Wunderground v.1.15,2013-01-17 01:31:00,
2013-01-16 19:36:00,31.2,29.9,30.16,NNW,337,0.0,0.0,95,0.00,,,0.07,Wunderground v.1.15,2013-01-17 01:36:00,
2013-01-16 19:41:00,31.2,29.9,30.16,NNW,337,0.0,0.0,95,0.00,,,0.07,Wunderground v.1.15,2013-01-17 01:41:00,
2013-01-16 19:46:00,31.2,29.9,30.16,NNW,337,0.0,0.0,95,0.00,,,0.07,Wunderground v.1.15,2013-01-17 01:46:00,
2013-01-16 19:51:00,31.2,29.9,30.16,NNW,337,0.0,0.0,95,0.00,,,0.07,Wunderground v.1.15,2013-01-17 01:51:00,
2013-01-16 19:56:00,31.3,30.0,30.16,NNW,337,0.0,0.0,95,0.00,,,0.07,Wunderground v.1.15,2013-01-17 01:56:00,
2013-01-16 20:01:00,31.3,30.0,30.16,NNW,337,0.0,0.0,95,0.00,,,0.07,Wunderground v.1.15,2013-01-17 02:01:00,
2013-01-16 20:06:00,31.3,30.0,30.17,NNW,337,0.0,0.0,95,0.00,,,0.07,Wunderground v.1.15,2013-01-17 02:06:00,
2013-01-16 20:11:00,31.4,30.4,30.16,NNW,337,0.0,1.0,96,0.00,,,0.07,Wunderground v.1.15,2013-01-17 02:11:00,
2013-01-16 20:17:00,31.4,30.4,30.16,NNW,337,0.0,1.0,96,0.00,,,0.07,Wunderground v.1.15,2013-01-17 02:17:00,
2013-01-16 20:22:00,31.4,30.4,30.16,NNW,337,0.0,0.0,96,0.00,,,0.07,Wunderground v.1.15,2013-01-17 02:22:00,
2013-01-16 20:27:00,31.5,30.2,30.16,NNW,337,0.0,0.0,95,0.00,,,0.07,Wunderground v.1.15,2013-01-17 02:27:00,
2013-01-16 20:32:00,31.5,30.2,30.16,NNW,337,0.0,0.0,95,0.00,,,0.07,Wunderground v.1.15,2013-01-17 02:32:00,
2013-01-16 20:37:00,31.5,30.2,30.17,NNW,337,0.0,0.0,95,0.00,,,0.07,Wunderground v.1.15,2013-01-17 02:37:00,
2013-01-16 20:43:00,31.5,30.2,30.16,NNW,337,0.0,0.0,95,0.00,,,0.07,Wunderground v.1.15,2013-01-17 02:43:00,
2013-01-16 20:48:00,31.6,30.3,30.16,NNW,337,0.0,0.0,95,0.00,,,0.07,Wunderground v.1.15,2013-01-17 02:48:00,
2013-01-16 20:53:00,31.6,30.3,30.17,NNW,337,0.0,0.0,95,0.00,,,0.07,Wunderground v.1.15,2013-01-17 02:53:00,
2013-01-16 20:58:00,31.6,30.3,30.17,NNW,337,0.0,0.0,95,0.00,,,0.07,Wunderground v.1.15,2013-01-17 02:58:00,
2013-01-16 21:03:00,31.6,30.3,30.17,NNW,337,0.0,0.0,95,0.00,,,0.07,Wunderground v.1.15,2013-01-17 03:03:00,
2013-01-16 21:08:00,31.6,30.3,30.17,NNW,337,0.0,0.0,95,0.00,,,0.07,Wunderground v.1.15,2013-01-17 03:08:00,
2013-01-16 21:14:00,31.7,30.4,30.17,NNW,337,0.0,0.0,95,0.00,,,0.07,Wunderground v.1.15,2013-01-17 03:14:00,
2013-01-16 21:19:00,31.7,30.4,30.17,NNW,337,0.0,0.0,95,0.00,,,0.07,Wunderground v.1.15,2013-01-17 03:19:00,
2013-01-16 21:24:00,31.7,30.4,30.16,NNW,337,0.0,0.0,95,0.00,,,0.07,Wunderground v.1.15,2013-01-17 03:24:00,
2013-01-16 21:29:00,31.7,30.4,30.17,NNW,337,0.0,0.0,95,0.00,,,0.07,Wunderground v.1.15,2013-01-17 03:29:00,
2013-01-16 21:34:00,31.7,30.4,30.16,NNW,337,0.0,0.0,95,0.00,,,0.07,Wunderground v.1.15,2013-01-17 03:34:00,
2013-01-16 21:39:00,31.8,30.8,30.16,NNW,337,0.0,0.0,96,0.00,,,0.07,Wunderground v.1.15,2013-01-17 03:39:00,
2013-01-16 21:45:00,31.8,30.8,30.16,NNW,337,0.0,0.0,96,0.00,,,0.07,Wunderground v.1.15,2013-01-17 03:45:00,
2013-01-16 21:50:00,31.8,30.8,30.16,NNW,337,0.0,0.0,96,0.00,,,0.07,Wunderground v.1.15,2013-01-17 03:50:00,
2013-01-16 21:55:00,31.8,30.8,30.16,NNW,337,0.0,0.0,96,0.00,,,0.07,Wunderground v.1.15,2013-01-17 03:55:00,
2013-01-16 22:00:00,31.8,30.8,30.16,NNW,337,0.0,0.0,96,0.00,,,0.07,Wunderground v.1.15,2013-01-17 04:00:00,
2013-01-16 22:05:00,31.9,30.9,30.16,NNW,337,0.0,0.0,96,0.00,,,0.07,Wunderground v.1.15,2013-01-17 04:05:00,
2013-01-16 22:11:00,31.9,30.9,30.16,NNW,337,0.0,0.0,96,0.00,,,0.07,Wunderground v.1.15,2013-01-17 04:11:00,
2013-01-16 22:16:00,31.9,30.9,30.16,NNW,337,0.0,0.0,96,0.00,,,0.07,Wunderground v.1.15,2013-01-17 04:16:00,
2013-01-16 22:21:00,31.9,30.9,30.16,NNW,337,0.0,0.0,96,0.00,,,0.07,Wunderground v.1.15,2013-01-17 04:21:00,
2013-01-16 22:26:00,31.9,30.9,30.16,NNW,337,0.0,0.0,96,0.00,,,0.07,Wunderground v.1.15,2013-01-17 04:26:00,
2013-01-16 22:31:00,31.9,30.9,30.16,NNW,337,0.0,0.0,96,0.00,,,0.07,Wunderground v.1.15,2013-01-17 04:31:00,
2013-01-16 22:36:00,31.9,30.9,30.15,NNW,337,0.0,0.0,96,0.00,,,0.07,Wunderground v.1.15,2013-01-17 04:36:00,
2013-01-16 22:41:00,31.9,30.9,30.16,NNW,337,0.0,0.0,96,0.00,,,0.07,Wunderground v.1.15,2013-01-17 04:41:00,
2013-01-16 22:46:00,31.9,30.9,30.15,NNW,337,0.0,0.0,96,0.00,,,0.07,Wunderground v.1.15,2013-01-17 04:46:00,
2013-01-16 22:51:00,31.9,30.9,30.16,NNW,337,0.0,1.0,96,0.00,,,0.07,Wunderground v.1.15,2013-01-17 04:51:00,
2013-01-16 22:56:00,32.0,31.0,30.15,NNW,337,0.0,1.0,96,0.00,,,0.07,Wunderground v.1.15,2013-01-17 04:56:00,
2013-01-16 23:00:00,31.9,30.9,30.15,NNW,337,0.0,1.0,96,0.00,,,0.07,Wunderground v.1.15,2013-01-17 05:00:00,
2013-01-16 23:02:00,31.9,30.9,30.15,NNW,337,0.0,0.0,96,0.00,,,0.07,Wunderground v.1.15,2013-01-17 05:02:00,
2013-01-16 23:07:00,31.9,30.9,30.15,NNW,337,0.0,0.0,96,0.00,,,0.07,Wunderground v.1.15,2013-01-17 05:07:00,
2013-01-16 23:12:00,31.9,30.9,30.16,NNW,337,0.0,0.0,96,0.00,,,0.07,Wunderground v.1.15,2013-01-17 05:12:00,
2013-01-16 23:17:00,31.9,30.9,30.15,NNW,337,0.0,0.0,96,0.00,,,0.07,Wunderground v.1.15,2013-01-17 05:17:00,
2013-01-16 23:22:00,31.9,30.9,30.15,NNW,337,0.0,0.0,96,0.00,,,0.07,Wunderground v.1.15,2013-01-17 05:22:00,
2013-01-16 23:27:00,31.9,30.9,30.15,NNW,337,0.0,0.0,96,0.00,,,0.07,Wunderground v.1.15,2013-01-17 05:27:00,
2013-01-16 23:32:00,31.9,30.9,30.15,NNW,337,0.0,0.0,96,0.00,,,0.07,Wunderground v.1.15,2013-01-17 05:32:00,
2013-01-16 23:37:00,31.9,30.9,30.15,NNW,337,0.0,0.0,96,0.00,,,0.07,Wunderground v.1.15,2013-01-17 05:37:00,
2013-01-16 23:43:00,31.9,30.9,30.15,NNW,337,0.0,0.0,96,0.00,,,0.07,Wunderground v.1.15,2013-01-17 05:43:00,
2013-01-16 23:48:00,31.9,30.9,30.15,NNW,337,0.0,0.0,96,0.00,,,0.07,Wunderground v.1.15,2013-01-17 05:48:00,
2013-01-16 23:53:00,31.9,30.9,30.15,NNW,337,0.0,0.0,96,0.00,,,0.07,Wunderground v.1.15,2013-01-17 05:53:00,
2013-01-16 23:58:00,31.8,30.8,30.15,NNW,337,0.0,0.0,96,0.00,,,0.07,Wunderground v.1.15,2013-01-17 05:58:00,